sat.trackr.live / text

‹ back to catalog

STARLINK-36610

NORAD 67637 · 2026-020W

PAYLOAD ACTIVE UNKNOWN

§ Identity

Operator
Country
US
Launch date
2026-01-30
Launch site
AFETR
Launch vehicle
Mass (kg)
RCS (m²)

Purposes: comms

External: N2YO · Heavens-Above · Gunter

§ Orbital elements

Epoch: 2026-09-19T21:10:20.849664Z

Period
94.27 min
Inclination
43.0016°
Eccentricity
0.0001522
Mean motion
15.27594308 rev/d
Perigee alt
482.0 km
Apogee alt
484.1 km
Semi-major
6,861.1 km
B*
3.8928e-4
RAAN
123.0067°
Arg perigee
267.4490°
Mean anomaly
92.6188°
Rev number
3,581

§ Raw data

STARLINK-366101 67637U 26020W   26262.88218576  .00010470  00000+0  38928-3 0  99962 67637  43.0016 123.0067 0001522 267.4490  92.6188 15.27594308 35811

JSON: /api/v1/satellites/67637 · /tle

For live sub-satellite position, see the globe view (requires WebGL).

§ Visibility from observer

Set your observer location to see the next 7 days of passes ≥ 10°. The values pass through the URL so the page stays shareable.

No JS? Fill the form by hand. The geolocation button needs JavaScript.